Location: Newark
(9.4667°S, 159.8167°E)
Time: 04:45:07
(UTC+00:00)

Courier 1B Rocket - Pass Details

Date: 29 November 2019
Orbit: 920 x 1202 km, 28.2° (Epoch: 07 December)

Event Time Altitude Azimuth Distance (km) Brightness Sun altitude
Rises 08:48:24 0° 305° (NW) 3,961 8.6 -19.0°
Reaches altitude 10° 08:51:08 10° 307° (NW) 3,036 7.9 -19.6°
Maximum altitude 08:58:42 72° 30° (NNE) 1,243 5.3 -21.3°
Enters shadow 09:03:52 23° 109° (ESE) 2,279 6.5 -22.4°
Drops below altitude 10° 09:06:32 10° 113° (ESE) 3,135 - -23.0°
Sets 09:09:25 0° 115° (ESE) 4,096 - -23.6°
